Location: Valdosta
(30.8330°N, 83.2790°W)
Time: 13:59:40
(UTC-04:00)

Daily predictions for brighter satellites

Satellite Brightness Start Highest point End
(mag) Time Altitude Azimuth Time Altitude Azimuth Time Altitude Azimuth
NOSS 3-4 (A) 4.1 20:08:31 10° NNW 20:15:28 52° ENE 20:22:45 10° SE
NOSS 3-4 (C) 4.1 20:08:39 10° NNW 20:15:35 52° ENE 20:22:52 10° SE
Cosmos 1777 Rocket 4.0 20:13:52 10° NNW 20:19:08 71° ENE 20:24:22 10° SSE
SJ-6B 2.8 20:16:28 10° S 20:20:11 81° WSW 20:23:56 10° NNW
Hubble Space Telescope 2.3 20:17:42 10° WSW 20:21:16 28° SSW 20:24:50 10° SE
Resurs 1-3 4.1 20:20:06 10° SE 20:24:11 40° ENE 20:28:17 10° N
BREEZE-M DEB (TANK) 3.6 20:13:44 10° NW 20:25:48 75° SW 20:29:18 10° SE
Cosmos 2123 Rocket 4.4 20:20:17 10° N 20:26:05 42° E 20:31:52 10° SSE
CZ-4B DEB 3.9 20:27:00 10° SE 20:29:45 25° ENE 20:32:32 10° NNE
Cosmos 2297 Rocket 3.1 20:25:52 10° N 20:30:51 31° ENE 20:35:48 10° SE
SL-24 R/B - RUBIN 2 4.3 20:26:39 10° SSW 20:32:13 87° ESE 20:38:34 10° NNE
Okean 2 3.4 20:28:25 10° N 20:32:32 61° E 20:36:37 10° SSE
Meteor 1-5 Rocket 4.2 20:27:21 10° S 20:32:40 89° W 20:38:08 10° N
Cosmos 2082 4.1 20:27:23 10° N 20:32:42 43° ENE 20:38:01 10° SE
Helios 1B rocket 3.0 20:30:02 10° N 20:34:07 63° WNW 20:38:09 10° SSW
Spot 2 Rocket 3.5 20:31:36 10° SSE 20:36:41 81° ENE 20:41:46 10° N
Delta 2 Rocket 4.1 20:32:48 10° WNW 20:38:38 87° SSW 20:43:34 13° ESE
Cosmos 1544 Rocket 4.3 20:35:54 10° SSW 20:40:12 58° W 20:44:33 10° N
Cosmos 1934 Rocket 4.1 20:35:48 10° S 20:41:55 82° W 20:48:10 10° N
Iridium 4 Rocket 4.3 20:39:35 10° NNE 20:43:25 24° E 20:46:42 11° SE
Cosmos 1346 Rocket 2.7 20:42:18 10° N 20:46:18 76° E 20:50:18 10° SSE
Resurs 01 Rocket 2.0 20:46:27 10° S 20:50:51 69° W 20:55:16 10° NNW
Lacrosse 5 3.6 20:47:31 10° N 20:51:00 18° NE 20:53:46 12° ENE
ATLAS 3B CENTAUR R/B 1.2 20:52:08 10° WSW 20:54:07 24° SSW 20:54:41 21° SSE
Cosmos 1743 4.0 20:59:22 21° E 20:59:34 21° E 21:02:34 10° NE
Cosmos 1697 Rocket 2.6 20:54:03 10° SSW 20:59:41 76° ESE 21:05:20 10° NNE
Helios 1A 3.9 20:57:13 10° S 21:01:15 49° W 21:05:19 10° NNW
ERS-1 Rocket 4.1 21:08:33 22° E 21:09:51 25° ENE 21:13:53 10° NNE
Cosmos 1461 3.4 21:08:41 10° NW 21:12:34 52° WSW 21:15:42 14° S
RESURS DK-1 3.5 21:15:16 10° N 21:18:44 25° ENE 21:18:51 25° ENE
Cosmos 1763 Rocket 3.6 21:16:42 10° S 21:21:36 48° ESE 21:26:28 10° NNE
Cosmos 2150 Rocket 4.2 21:16:55 10° N 21:21:55 49° ENE 21:23:51 33° SE
OTV 4 0.5 21:19:55 10° WNW 21:22:50 60° SSW 21:22:59 59° S
USA 186 1.5 21:22:39 47° S 21:23:27 87° W 21:26:22 10° NNW
ALOS 2.5 21:18:55 10° S 21:23:33 69° W 21:28:13 10° NNW
Cosmos 1980 Rocket 2.1 21:18:02 10° S 21:23:40 72° ESE 21:29:20 10° NNE
OAO 2 Rocket 3.8 21:20:51 10° WNW 21:25:44 53° N 21:28:13 28° ENE
H-2A R/B 3.0 21:24:04 18° S 21:26:53 71° W 21:30:48 10° NNW
Cosmos 2173 Rocket 4.0 21:22:16 10° S 21:28:31 60° E 21:34:44 10° NNE
Cosmos 1898 Rocket 3.4 21:29:53 10° NNW 21:35:10 72° ENE 21:37:06 39° SSE
H-2A R/B 4.0 21:37:53 16° NE 21:37:53 16° NE 21:39:13 10° NNE
FENGYUN 3A 4.2 21:31:26 10° S 21:36:40 57° W 21:41:56 10° NNW
Orbus 7S 3.8 21:32:31 10° W 21:37:29 42° SSW 21:37:34 42° SSW
Cosmos 2084 3.3 21:37:51 10° NNW 21:42:02 82° ENE 21:42:28 70° SE
DELTA 2 R/B (1) 3.6 21:36:46 10° WNW 21:42:20 72° NNE 21:43:49 49° E
Cosmos 2100 Rocket 4.0 21:39:09 10° S 21:45:27 87° W 21:51:43 10° N
Cosmos 841 Rocket 3.3 21:40:40 10° S 21:45:53 76° ESE 21:51:07 10° NNE
YAOGAN 11 4.0 21:48:04 71° ESE 21:48:18 73° ENE 21:52:46 10° N
Tiangong 1 3.6 21:48:51 10° NNW 21:50:13 16° N 21:50:13 16° N
CZ-3C R/B 3.4 21:07:00 10° W 21:51:51 48° SSW 21:55:35 33° SSE
Lacrosse 5 rocket 2.6 21:51:03 10° WNW 21:54:12 28° WSW 21:54:20 28° SW
Cosmos 2322 Rocket 3.5 22:00:47 25° NE 22:00:47 25° NE 22:03:13 10° NNE
Cosmos 2061 Rocket 4.1 21:52:30 10° S 21:58:49 75° W 22:05:05 10° N
Cosmos 2227 Rocket 4.1 21:55:12 10° NW 21:59:47 26° WSW 22:04:20 10° SSW
Cosmos 1340 4.4 22:02:11 10° N 22:03:55 26° N 22:03:55 26° N
Meteor 2-9 Rocket 4.5 22:12:19 53° NNE 22:12:19 53° NNE 22:16:30 10° NNE
Cosmos 2297 Rocket 3.9 22:10:00 10° NW 22:14:41 27° WSW 22:18:08 15° SSW
Cosmos 1725 Rocket 3.9 22:18:11 68° NE 22:18:11 68° NE 22:23:50 10° N
Meteor 1-21 4.2 22:16:24 10° N 22:22:10 82° W 22:22:10 82° W
Cosmos 1939 Rocket 4.4 22:24:09 35° NW 22:24:09 35° NW 22:26:49 10° NNW
Cosmos 2227 4.5 22:20:08 10° NNW 22:24:54 61° N 22:24:54 61° N
Envisat 3.4 22:26:38 60° WNW 22:26:38 60° WNW 22:31:04 10° NNW
Milstar 3 Cent rocket 4.0 22:04:54 10° W 22:26:51 73° SSW 22:30:15 53° SE
Lacrosse 5 2.8 22:29:19 10° NW 22:32:58 45° WNW 22:32:58 45° WNW
Centaur AC-125 4.0 22:21:07 10° W 22:34:17 51° SW 22:34:17 51° SW
SPOT 5 4.2 22:38:12 35° NNW 22:38:12 35° NNW 22:40:57 10° NNW
SL-16 R/B 3.6 22:57:52 33° NNW 22:57:52 33° NNW 23:01:11 10° N
Cosmos 2263 Rocket 4.5 23:33:07 10° NNW 23:34:32 18° NNW 23:34:32 18° NNW
